Location: Buch
(50.1863°N, 11.0141°E)
Time: 10:35:50
(UTC+00:00)

Cosmos 2278 - Pass Details

Date: 18 January 2020
Orbit: 840 x 853 km, 71.1° (Epoch: 18 February)

Event Time Altitude Azimuth Distance (km) Brightness Sun altitude
Rises 06:27:45 0° 241° (WSW) 3,414 6.5 -6.4°
Reaches altitude 10° 06:30:28 10° 251° (WSW) 2,482 5.7 -6.0°
Maximum altitude 06:35:31 32° 314° (NW) 1,436 4.4 -5.3°
Drops below altitude 10° 06:40:37 10° 17° (NNE) 2,492 6.1 -4.6°
Sets 06:43:22 0° 27° (NNE) 3,430 6.9 -4.2°
